Flag for Norway Weather past 2 weeks in Farsund, Norway

Now
57 °F

Cool.


Feels Like: 57 °F
Forecast: 56 / 64 °F
Wind: 3 mph from East

Location: Lista Fyr

Current Time: Sep 2, 2014 at 12:16:50 AM

Latest Report: Sep 1, 2014 at 11:00 PM


Visibility: N/A

Pressure: 30.17 "Hg

Humidity: 87%

Dew point: 53 °F

Location of FarsundLocation

Historic Weather in Farsund — Graph

°F

Farsund temperature yesterday

Maximum temperature yesterday: 62 °F (at 3:00 PM)
Minimum temperature yesterday: 57 °F (at 11:00 PM)
Average temperature yesterday: 59 °F

Past Weeks' High & Low Weather Summary

 TemperatureHumidityPressure
High65 °F (Aug 31, 12:00 PM)94% (Aug 22, 3:00 AM)30.17 "Hg (Aug 22, 3:00 AM)
Low46 °F (Aug 18, 6:00 AM)61% (Aug 24, 9:00 PM)29.21 "Hg (Aug 18, 2:00 PM)
Average57 °F80%29.73 "Hg
* Reported Aug 17 11:00 PM — Sep 1 11:00 PM, Farsund, Weather by CustomWeather, © 2014

Note: Actual official high and low records may vary slightly from our data, if they occured in-between our weather recording intervals... More about our weather records

Advertising

Farsund weather history for previous 24 hours

 ConditionsComfort  
Time TempWeatherWind HumidityBarometerVisibility
11:00 PM
Sep 1
57 °FCool.3 mph87%30.17 "HgN/A
10:00 PM57 °FCool.5 mph85%30.17 "HgN/A
9:00 PM58 °FCool.6 mph84%30.16 "HgN/A
8:00 PM59 °FOvercast.6 mph80%30.15 "Hg12 mi
7:00 PM60 °FCool.6 mph79%30.14 "HgN/A
6:00 PM61 °FCool.7 mph77%30.14 "HgN/A
5:00 PM62 °FCool.8 mph74%30.14 "HgN/A
4:00 PM61 °FCool.9 mph76%30.15 "HgN/A
3:00 PM62 °FCool.9 mph74%30.15 "HgN/A
2:00 PM61 °FOvercast.8 mph75%30.15 "Hg25 mi
1:00 PM61 °FCool.8 mph76%30.15 "HgN/A
12:00 PM60 °FCool.7 mph76%30.14 "HgN/A
11:00 AM59 °FOvercast.7 mph76%30.14 "Hg16 mi
10:00 AM59 °FCool.8 mph75%30.13 "HgN/A
9:00 AM58 °FCool.7 mph77%30.13 "HgN/A
8:00 AM58 °FOvercast.6 mph78%30.13 "Hg19 mi
7:00 AM57 °FCool.6 mph80%30.13 "HgN/A
6:00 AM57 °FCool.7 mph79%30.11 "HgN/A
5:00 AM58 °FCool.7 mph77%30.11 "HgN/A
4:00 AM58 °FCool.8 mph75%30.12 "HgN/A
3:00 AM59 °FCool.8 mph74%30.13 "HgN/A
2:00 AM59 °FCool.8 mph73%30.12 "HgN/A
1:00 AM59 °FCool.7 mph72%30.12 "HgN/A
12:00 AM59 °FCool.7 mph73%30.12 "HgN/A
Weather by CustomWeather, © 2014

See weather overviewHow to use our weather pages